When you browse on this site, cookies collect data to enhance your experience and personalize the content and advertising you see.
Visit our Privacy Policy to learn more. By continuing to use the site, you agree to this use of cookies and data.

Hourly Weather Wien

Today, 14 July, Tuesday

Time Temperature Precipitation Wind Pressure Humidity
00:00 +15°C° 0 mm 1 mps 746 mmHg 71%
01:00 +14°C° 0 mm 1 mps 746 mmHg 72%
02:00 +14°C° 0 mm 1 mps 746 mmHg 74%
03:00 +13°C° 0 mm 1 mps 746 mmHg 76%
04:00 +13°C° 0 mm 1 mps 745 mmHg 77%
05:00 +14°C° 0 mm 1 mps 745 mmHg 73%
06:00 +15°C° 0 mm 1 mps 745 mmHg 69%
07:00 +16°C° 0 mm 1 mps 745 mmHg 66%
08:00 +19°C° 0 mm 1 mps 745 mmHg 61%
09:00 +19°C° 0 mm 2 mps 745 mmHg 57%
10:00 +20°C° 0 mm 2 mps 745 mmHg 52%
11:00 +21°C° 0 mm 2 mps 744 mmHg 50%
12:00 +22°C° 0 mm 3 mps 744 mmHg 48%
13:00 +24°C° 0 mm 3 mps 744 mmHg 46%
14:00 +24°C° 0 mm 3 mps 743 mmHg 45%
15:00 +24°C° 0 mm 3 mps 743 mmHg 45%
16:00 +25°C° 0 mm 3 mps 743 mmHg 45%
17:00 +24°C° 0 mm 3 mps 742 mmHg 50%
18:00 +21°C° 0 mm 4 mps 742 mmHg 55%
19:00 +20°C° 0 mm 4 mps 742 mmHg 61%
20:00 +19°C° 0 mm 3 mps 742 mmHg 62%
21:00 +18°C° 0 mm 3 mps 742 mmHg 64%
22:00 +18°C° 0 mm 3 mps 742 mmHg 66%
23:00 +17°C° 0 mm 3 mps 742 mmHg 67%

Tomorrow, 15 July, Wednesday

Time Temperature Precipitation Wind Pressure Humidity
00:00 +16°C° 0 mm 3 mps 742 mmHg 69%
01:00 +16°C° 0 mm 3 mps 742 mmHg 70%
02:00 +16°C° 0 mm 2 mps 742 mmHg 71%
03:00 +15°C° 0 mm 2 mps 742 mmHg 72%
04:00 +15°C° 0 mm 2 mps 742 mmHg 73%
05:00 +16°C° 0 mm 2 mps 742 mmHg 70%
06:00 +17°C° 0 mm 2 mps 742 mmHg 67%
07:00 +18°C° 0 mm 2 mps 742 mmHg 64%
08:00 +20°C° 0 mm 2 mps 742 mmHg 59%
09:00 +23°C° 0 mm 2 mps 742 mmHg 55%
10:00 +24°C° 0 mm 3 mps 742 mmHg 50%
11:00 +25°C° 0 mm 3 mps 742 mmHg 48%
12:00 +26°C° 0 mm 2 mps 742 mmHg 47%
13:00 +27°C° 0 mm 2 mps 741 mmHg 45%
14:00 +27°C° 0.1 mm 2 mps 741 mmHg 47%
15:00 +26°C° 0.1 mm 2 mps 741 mmHg 49%
16:00 +26°C° 0.1 mm 2 mps 741 mmHg 52%
17:00 +25°C° 0 mm 2 mps 741 mmHg 56%
18:00 +24°C° 0 mm 2 mps 741 mmHg 59%
19:00 +23°C° 0 mm 2 mps 741 mmHg 63%
20:00 +22°C° 0.1 mm 1 mps 741 mmHg 65%
21:00 +21°C° 0.1 mm 1 mps 741 mmHg 67%
22:00 +20°C° 0.1 mm 1 mps 741 mmHg 68%
23:00 +19°C° 0.1 mm 2 mps 742 mmHg 71%

Day after tomorrow, 16 July, Thursday

Time Temperature Precipitation Wind Pressure Humidity
00:00 +19°C° 0.1 mm 2 mps 742 mmHg 73%
01:00 +19°C° 0.1 mm 3 mps 742 mmHg 75%
02:00 +18°C° 0 mm 3 mps 742 mmHg 77%
03:00 +18°C° 0 mm 3 mps 742 mmHg 80%
04:00 +18°C° 0 mm 3 mps 742 mmHg 82%
05:00 +18°C° 0.2 mm 4 mps 742 mmHg 81%
06:00 +18°C° 0.2 mm 4 mps 742 mmHg 80%
07:00 +18°C° 0.2 mm 4 mps 743 mmHg 80%
08:00 +20°C° 0.1 mm 4 mps 743 mmHg 72%
09:00 +21°C° 0.1 mm 4 mps 743 mmHg 64%
10:00 +22°C° 0.1 mm 4 mps 743 mmHg 57%
11:00 +23°C° 0.1 mm 5 mps 743 mmHg 54%
12:00 +23°C° 0.1 mm 6 mps 743 mmHg 52%
13:00 +24°C° 0.1 mm 6 mps 743 mmHg 50%
14:00 +24°C° 0.1 mm 6 mps 743 mmHg 52%
15:00 +23°C° 0.1 mm 6 mps 742 mmHg 54%
16:00 +23°C° 0.1 mm 5 mps 742 mmHg 56%
17:00 +22°C° 0.1 mm 5 mps 742 mmHg 60%
18:00 +21°C° 0.1 mm 4 mps 742 mmHg 64%
19:00 +20°C° 0.1 mm 3 mps 743 mmHg 68%
20:00 +19°C° 0.1 mm 3 mps 743 mmHg 70%
21:00 +19°C° 0.1 mm 3 mps 743 mmHg 72%
22:00 +18°C° 0.1 mm 3 mps 743 mmHg 75%
23:00 +17°C° 0.2 mm 3 mps 743 mmHg 76%

17 July, Friday

Time Temperature Precipitation Wind Pressure Humidity
00:00 +17°C° 0.2 mm 4 mps 743 mmHg 78%
01:00 +17°C° 0.2 mm 4 mps 743 mmHg 80%
02:00 +15°C° 0.1 mm 4 mps 743 mmHg 81%
03:00 +15°C° 0.1 mm 4 mps 743 mmHg 81%
04:00 +15°C° 0.1 mm 4 mps 742 mmHg 82%
05:00 +16°C° 0.1 mm 3 mps 742 mmHg 82%
06:00 +16°C° 0.1 mm 3 mps 742 mmHg 82%
07:00 +16°C° 0.1 mm 3 mps 742 mmHg 82%
08:00 +17°C° 0.1 mm 3 mps 743 mmHg 79%
09:00 +17°C° 0.1 mm 2 mps 743 mmHg 77%
10:00 +18°C° 0.1 mm 2 mps 743 mmHg 74%
11:00 +19°C° 0.3 mm 2 mps 743 mmHg 71%
12:00 +19°C° 0.3 mm 2 mps 742 mmHg 68%
13:00 +20°C° 0.3 mm 3 mps 742 mmHg 65%
14:00 +21°C° 0.4 mm 3 mps 742 mmHg 64%
15:00 +21°C° 0.4 mm 3 mps 742 mmHg 62%
16:00 +22°C° 0.4 mm 4 mps 742 mmHg 61%
17:00 +21°C° 0.6 mm 3 mps 742 mmHg 66%
18:00 +20°C° 0.6 mm 3 mps 742 mmHg 71%
19:00 +19°C° 0.6 mm 3 mps 742 mmHg 76%
20:00 +18°C° 0.4 mm 3 mps 742 mmHg 78%
21:00 +17°C° 0.4 mm 3 mps 743 mmHg 80%
22:00 +17°C° 0.4 mm 2 mps 743 mmHg 82%
23:00 +16°C° 0.3 mm 2 mps 743 mmHg 83%

18 July, Saturday

Time Temperature Precipitation Wind Pressure Humidity
00:00 +16°C° 0.3 mm 2 mps 743 mmHg 84%
01:00 +16°C° 0.3 mm 2 mps 743 mmHg 86%
02:00 +14°C° 0.4 mm 3 mps 743 mmHg 86%
03:00 +14°C° 0.4 mm 3 mps 743 mmHg 87%
04:00 +14°C° 0.4 mm 3 mps 743 mmHg 88%
05:00 +14°C° 0.1 mm 3 mps 743 mmHg 86%
06:00 +16°C° 0.1 mm 3 mps 743 mmHg 84%
07:00 +15°C° 0.1 mm 4 mps 743 mmHg 82%
08:00 +17°C° 0.2 mm 4 mps 743 mmHg 76%
09:00 +19°C° 0.2 mm 3 mps 743 mmHg 71%
10:00 +20°C° 0.2 mm 3 mps 743 mmHg 66%
11:00 +21°C° 0.6 mm 3 mps 743 mmHg 63%
12:00 +21°C° 0.6 mm 3 mps 743 mmHg 60%
13:00 +22°C° 0.6 mm 3 mps 743 mmHg 57%
14:00 +22°C° 0.3 mm 3 mps 743 mmHg 56%
15:00 +24°C° 0.3 mm 3 mps 742 mmHg 56%
16:00 +24°C° 0.3 mm 2 mps 742 mmHg 55%
17:00 +23°C° 0.2 mm 2 mps 742 mmHg 60%
18:00 +21°C° 0.2 mm 2 mps 742 mmHg 65%
19:00 +20°C° 0.2 mm 2 mps 742 mmHg 70%
20:00 +19°C° 0 mm 2 mps 742 mmHg 73%
21:00 +18°C° 0 mm 2 mps 743 mmHg 76%
22:00 +17°C° 0 mm 2 mps 743 mmHg 79%
23:00 +17°C° 0 mm 2 mps 743 mmHg 80%

19 July, Sunday

Time Temperature Precipitation Wind Pressure Humidity
00:00 +16°C° 0 mm 2 mps 743 mmHg 82%
01:00 +16°C° 0 mm 2 mps 743 mmHg 84%
02:00 +16°C° 0 mm 2 mps 743 mmHg 85%
03:00 +15°C° 0 mm 2 mps 743 mmHg 86%
04:00 +15°C° 0 mm 2 mps 743 mmHg 87%
05:00 +16°C° 0 mm 2 mps 743 mmHg 83%
06:00 +17°C° 0 mm 2 mps 743 mmHg 80%
07:00 +18°C° 0 mm 2 mps 743 mmHg 77%
08:00 +20°C° 0 mm 2 mps 743 mmHg 71%
09:00 +21°C° 0 mm 3 mps 743 mmHg 66%
10:00 +22°C° 0 mm 3 mps 743 mmHg 60%
11:00 +24°C° 0 mm 3 mps 743 mmHg 55%
12:00 +26°C° 0 mm 2 mps 742 mmHg 50%
13:00 +27°C° 0 mm 2 mps 742 mmHg 44%
14:00 +27°C° 0 mm 2 mps 742 mmHg 44%
15:00 +27°C° 0 mm 2 mps 742 mmHg 44%
16:00 +27°C° 0 mm 3 mps 742 mmHg 44%
17:00 +26°C° 0 mm 2 mps 742 mmHg 50%
18:00 +25°C° 0 mm 2 mps 742 mmHg 56%
19:00 +23°C° 0 mm 2 mps 742 mmHg 62%
20:00 +21°C° 0 mm 2 mps 742 mmHg 65%
21:00 +20°C° 0 mm 2 mps 742 mmHg 69%
22:00 +19°C° 0 mm 2 mps 742 mmHg 72%
23:00 +19°C° 0 mm 2 mps 742 mmHg 74%
Show more